EW6157 Weather Reports


time (UTC)temp
C
wind
direction
speed
KPH
gust
KPH
rain 1hr
cm
rain 24hr
cm
rain mn
cm
humidity
%
barometer
mb
20260503183033 23 231 14.5 32.2 0.00 0.00 0.00 26 1013.6
20260503181533 23 224 14.5 30.6 0.00 0.00 0.00 27 1013.9
20260503180026 23 181 9.7 27.4 0.00 0.00 0.00 29 1014.1
20260503174527 23 179 11.3 24.1 0.00 0.00 0.00 29 1014.4
20260503173022 23 274 16.1 27.4 0.00 0.00 0.00 29 1014.8
20260503171517 22 117 11.3 25.7 0.00 0.00 0.00 31 1015.1
20260503081547 9 219 8.0 19.3 0.00 0.03 0.00 60 1017.7
20260503071540 10 217 8.0 16.1 0.00 0.03 0.00 51 1018.2
20260503054528 11 222 4.8 8.0 0.00 0.03 0.00 41 1018.1
20260503053016 11 217 1.6 8.0 0.00 0.03 0.00 40 1018.1
20260503051514 12 212 3.2 9.7 0.00 0.03 0.00 40 1018.3
20260503050014 11 202 1.6 6.4 0.00 0.03 0.00 41 1018.2
20260503044513 11 221 1.6 6.4 0.00 0.03 0.03 39 1018.2
20260503043008 11 213 0.0 3.2 0.00 0.03 0.03 38 1018.1
20260503041509 12 231 1.6 6.4 0.00 0.03 0.03 36 1018.2
20260503040008 12 274 1.6 4.8 0.00 0.03 0.03 37 1018.2
20260503034508 12 274 0.0 1.6 0.00 0.03 0.03 36 1018.2
20260503033014 12 274 0.0 0.0 0.00 0.03 0.03 36 1018.1
20260503031507 12 274 0.0 1.6 0.00 0.03 0.03 35 1017.9
20260503030007 13 274 0.0 0.0 0.00 0.03 0.03 34 1017.7
20260503024506 12 274 0.0 0.0 0.00 0.03 0.03 35 1017.6
20260503023004 13 274 0.0 0.0 0.00 0.03 0.03 34 1017.5
20260503021504 13 274 0.0 0.0 0.00 0.03 0.03 32 1017.5
20260503020003 15 274 0.0 0.0 0.00 0.03 0.03 28 1017.3
20260503014503 17 274 0.0 0.0 0.00 0.03 0.03 27 1017.2
20260503013002 18 274 1.6 3.2 0.00 0.03 0.03 25 1017.1
20260503011503 20 275 0.0 6.4 0.00 0.03 0.03 22 1016.9
20260503010003 21 275 3.2 9.7 0.00 0.03 0.03 21 1017.0
20260503004501 22 200 0.0 3.2 0.00 0.03 0.03 20 1017.0
20260503003107 21 200 1.6 4.8 0.00 0.03 0.03 20 1017.0
20260503001612 20 212 1.6 9.7 0.00 0.03 0.03 21 1017.1
20260503000046 22 185 1.6 8.0 0.00 0.03 0.03 20 1017.2
20260502234629 22 214 0.0 11.3 0.00 0.03 0.03 21 1017.3
20260502233046 21 186 0.0 8.0 0.00 0.03 0.03 22 1017.5
20260502231631 21 230 3.2 16.1 0.00 0.03 0.03 20 1017.6
20260502230051 21 188 3.2 11.3 0.00 0.03 0.03 20 1017.7
20260502224507 22 113 3.2 9.7 0.00 0.03 0.03 20 1017.6
20260502223053 21 311 0.0 3.2 0.00 0.03 0.03 21 1017.7
20260502221501 21 311 3.2 12.9 0.00 0.03 0.03 20 1018.0
20260502220057 22 180 4.8 16.1 0.00 0.03 0.03 20 1018.2
20260502214548 23 30 3.2 6.4 0.00 0.03 0.03 19 1018.4
20260502213021 22 311 3.2 12.9 0.00 0.03 0.03 20 1018.7
20260502211625 22 270 4.8 17.7 0.00 0.03 0.03 19 1019.0
20260502210047 22 274 0.0 9.7 0.00 0.03 0.03 20 1019.2
20260502204544 22 48 1.6 11.3 0.00 0.03 0.03 19 1019.5
20260502203040 22 86 6.4 12.9 0.00 0.03 0.03 19 1019.7
20260502201539 22 194 6.4 12.9 0.00 0.03 0.03 20 1019.9
20260502200037 22 207 3.2 9.7 0.00 0.03 0.03 19 1020.2
20260502194537 21 64 4.8 14.5 0.00 0.03 0.03 20 1020.3
20260502193036 21 21 3.2 9.7 0.00 0.03 0.03 21 1020.6
20260502191531 21 96 1.6 16.1 0.00 0.03 0.03 22 1020.9
20260502190030 21 35 8.0 16.1 0.00 0.03 0.03 21 1021.2
20260502184550 21 32 6.4 14.5 0.00 0.03 0.03 20 1021.2